Location: Northcutt
(34.7304°N, 84.4305°W)
Time: 15:25:54
(UTC+00:00)

Vanguard 2 - All Passes

Search period start: 03 October 2022 00:00
Search period end: 13 October 2022 00:00
Orbit: 552 x 2935 km, 32.9° (Epoch: 02 October)

Date Brightness Start Highest point End Pass type
(mag) Time Alt. Az. Time Alt. Az. Time Alt. Az.
03 Oct - 01:14:42 10° W 01:30:05 38° SW 01:43:22 10° SSE visible
03 Oct - 16:51:59 10° SSW 17:00:18 43° SE 17:13:20 10° E daylight
03 Oct - 18:59:07 10° WSW 19:10:27 77° SSE 19:27:37 10° E daylight
03 Oct - 21:08:28 10° W 21:22:57 82° S 21:41:07 10° ESE daylight
03 Oct - 23:19:21 10° W 23:35:48 61° SSW 23:52:18 10° SE visible
04 Oct - 01:32:58 10° W 01:46:55 30° SW 01:59:12 10° S visible
04 Oct - 15:05:09 10° SSE 15:09:29 15° SE 15:14:54 10° E daylight
04 Oct - 17:08:37 10° SW 17:17:13 53° SSE 17:31:07 10° E daylight
04 Oct - 19:16:20 10° WSW 19:27:52 82° S 19:45:15 10° E daylight
04 Oct - 21:25:51 10° W 21:40:29 79° SSW 21:58:34 10° ESE daylight
04 Oct - 23:36:55 10° W 23:53:01 53° SSW 00:09:03 10° SE visible
05 Oct - 01:51:49 10° W 02:03:42 22° SW 02:14:25 10° S visible
05 Oct - 15:20:25 10° S 15:26:01 22° SE 15:33:52 10° E daylight
05 Oct - 17:25:29 10° SW 17:34:17 62° SSE 17:48:47 10° E daylight
05 Oct - 19:33:35 10° W 19:45:22 84° S 20:02:53 10° E daylight
05 Oct - 21:43:14 10° W 21:57:58 73° SSW 22:15:52 10° ESE daylight
05 Oct - 23:54:38 10° W 00:10:08 44° SW 00:25:31 10° SSE visible
06 Oct - 02:11:50 10° WSW 02:20:28 16° SW 02:28:30 10° SSW visible
06 Oct - 15:36:25 10° SSW 15:42:40 31° SE 15:52:07 10° E daylight
06 Oct - 17:42:30 10° WSW 17:51:29 71° SSE 18:06:26 10° E daylight
06 Oct - 19:50:54 10° W 20:02:52 83° S 20:20:30 10° E daylight
06 Oct - 22:00:38 10° W 22:15:22 66° SSW 22:33:01 10° SE daylight
07 Oct - 00:12:33 10° W 00:27:09 36° SW 00:41:38 10° SSE visible
07 Oct - 15:52:50 10° SSW 15:59:26 40° SE 16:10:01 10° E daylight
07 Oct - 17:59:37 10° WSW 18:08:47 77° SSE 18:24:04 10° E daylight
07 Oct - 20:08:12 10° W 20:20:22 81° S 20:38:03 10° ESE daylight
07 Oct - 22:18:06 10° W 22:32:41 58° SSW 22:49:56 10° SE daylight
08 Oct - 00:30:53 10° W 00:44:07 28° SW 00:57:17 10° S visible
08 Oct - 14:06:34 10° SSE 14:09:06 12° SE 14:12:02 10° ESE daylight
08 Oct - 16:09:31 10° SW 16:16:21 51° SSE 16:27:45 10° E daylight
08 Oct - 18:16:48 10° W 18:26:11 81° S 18:41:43 10° E daylight
08 Oct - 20:25:31 10° W 20:37:51 76° SSW 20:55:29 10° ESE daylight
08 Oct - 22:35:38 10° W 22:49:57 49° SSW 23:06:36 10° SE daylight
09 Oct - 00:49:51 10° W 01:01:04 21° SW 01:12:14 10° S visible
09 Oct - 14:21:32 10° S 14:25:42 19° SE 14:31:15 10° E daylight
09 Oct - 16:26:24 10° WSW 16:33:26 61° SSE 16:45:23 10° E daylight
09 Oct - 18:34:02 10° W 18:43:36 83° S 18:59:21 10° E daylight
09 Oct - 20:42:51 10° W 20:55:16 69° SSW 21:12:48 10° ESE daylight
09 Oct - 22:53:21 10° W 23:07:08 41° SSW 23:22:57 10° SSE daylight
10 Oct - 01:10:15 10° WSW 01:18:02 14° SW 01:25:48 10° SSW visible
10 Oct - 14:37:32 10° SSW 14:42:23 27° SE 14:49:28 10° E daylight
10 Oct - 16:43:25 10° WSW 16:50:37 70° SSE 17:03:00 10° E daylight
10 Oct - 18:51:17 10° W 19:01:03 81° S 19:16:58 10° E daylight
10 Oct - 21:00:12 10° W 21:12:39 61° SSW 21:29:53 10° SE daylight
10 Oct - 23:11:19 10° W 23:24:17 33° SW 23:38:55 10° SSE visible
11 Oct - 14:53:59 10° SW 14:59:12 37° SSE 15:07:19 10° E daylight
11 Oct - 17:00:33 10° WSW 17:07:53 77° S 17:20:37 10° E daylight
11 Oct - 19:08:33 10° W 19:18:28 78° S 19:34:30 10° ESE daylight
11 Oct - 21:17:38 10° W 21:29:59 53° SSW 21:46:46 10° SE daylight
11 Oct - 23:29:45 10° W 23:41:24 25° SW 23:54:19 10° S visible
12 Oct - 15:10:42 10° SW 15:16:08 48° SSE 15:24:59 10° E daylight
12 Oct - 17:17:43 10° W 17:25:13 81° S 17:38:14 10° E daylight
12 Oct - 19:25:48 10° W 19:35:52 72° SSW 19:51:55 10° ESE daylight
12 Oct - 21:35:11 10° W 21:47:17 44° SSW 22:03:19 10° SE daylight
